Estación Meteorológica Peña el Pijo (Robertgarden) [ 07/11/20 21:48:14 CEST ]

Fecha Hora Presion(HPa) Temp (°C) Humedad % Rocio (°C) Viento ( m/s) Direccion Lluvia 1Hora(mm) Lluvia 24H(mm) LLuvia Total(mm)
2020-Apr-04 01:08:55 1006.900 - - - - N     39.88
2020-Apr-04 02:08:47 1006.700 - - - - N     39.88
2020-Apr-04 03:10:03 1006.300 - - - - N     39.88
2020-Apr-04 04:13:52 1005.900 - - - - N     39.88
2020-Apr-04 05:09:43 1005.800 - - - - N     39.88
2020-Apr-04 06:09:43 1005.700 - - - - N     39.88
2020-Apr-04 07:09:05 1005.400 - - - - N     39.88
2020-Apr-04 08:09:01 1005.500 - - - - N     39.88
2020-Apr-04 09:08:51 1005.800 - - - - N     39.88
2020-Apr-04 10:09:10 1005.800 - - - - N     39.88
2020-Apr-04 11:09:21 1006.300 - - - - N     39.88
2020-Apr-04 12:08:59 1006.700 - - - - N     39.88
2020-Apr-04 13:08:54 1006.600 - - - - N     39.88
2020-Apr-04 14:09:22 1006.000 - - - - N     39.88
2020-Apr-04 15:09:19 1006.000 - - - - N     39.88
2020-Apr-04 16:09:28 1005.900 - - - - N     39.88
2020-Apr-04 17:09:00 1006.000 - - - - N     39.88
2020-Apr-04 18:08:49 1005.900 - - - - N     39.88
2020-Apr-04 19:08:54 1006.200 - - - - N     39.88
2020-Apr-04 20:09:11 1006.700 - - - - N     39.88
2020-Apr-04 21:09:17 1006.900 - - - - N     39.88
2020-Apr-04 22:09:19 1007.600 - - - - N     39.88
2020-Apr-04 23:09:36 1007.400 - - - - N     39.88

Temperatura Máxima:    Temperatura Mínima:
Presión Máxima:1007.600 Hpa    Presión Mínima:1005.400 Hpa


Volver